Content
SEND FEEDBACK

Daily
Averages
Monthly
Summary
Mexico

PLAYA DEL CARMEN, QUINTANA ROO


Home > North America > Mexico > Quintana Roo
Elevation: 30 feet     Latitude: 20 38N     Longitude: 087 04W

WEATHER
 
SELECT A DAY
Number of Records: 196,832;   Date Range: 2/21/06 - 9/18/14
 
SHARE

PRINT THIS DATA

[ ← Previous Day ]
WEATHER ALMANAC - FEBRUARY 12, 2014
[ Next Day → ]
[ °C ]   °F
Weather ElementAverageHighLow
Temperature66.4 °F80.6 °F (1:35 pm)57.2 °F (2:55 am)
Dewpoint19.8 °F64.4 °F (4:55 pm) (7:00 pm)
Humidity59 %100 % (1:15 am)42 % (1:55 pm)
Barometer29.93 in30.07 in (12:35 am)29.75 in (11:15 pm)
Wind Speed7.3 mph19.6 mph (4:55 pm)
Wind Gust36.8 mph (4:55 pm)
Weather ElementAverage
Visibility6.2 mi
Wind DirectionSE (135.5 °)

Weather ElementTotal
Precipitation1.00 in
Cooling Degree Days3.9 (Base 65)
Growing Degree Days18.9 (Base 50)
Averaged from 71 records on February 12, 2014
WEATHER CONDITIONS BREAKOUT
WIND DIRECTION BREAKOUT
WEATHER BY HOUR - FEBRUARY 12, 2014
[ °C ]   °F
Local TimeTemperatureDewpointHumidityBarometerVisibilityWind DirectionWind SpeedGust SpeedPrecipitationEventsConditions
12:35 AM60.8 °F59.0 °F94 %30.07 in10.0 miNE (40°)3.5 mphClear
12:55 AM60.8 °F57.2 °F88 %30.06 in10.0 miNE (50°)3.5 mphClear
1:15 AM59.0 °F59.0 °F100 %30.06 in7.0 miNE (50°)3.5 mphClear
1:35 AM60.8 °F0.0 °F30.05 in7.0 miNNE (30°)3.5 mphClear
1:55 AM59.0 °F0.0 °F30.05 in7.0 miNNE (20°)3.5 mphClear
2:15 AM59.0 °F0.0 °F30.04 in7.0 miNNE (20°)3.5 mphClear
2:35 AM59.0 °F0.0 °F30.03 in7.0 miCalmClear
2:55 AM57.2 °F0.0 °F30.02 in5.0 miCalmHaze
3:15 AM57.2 °F0.0 °F30.02 in5.0 miNNE (20°)3.5 mphHaze
3:35 AM57.2 °F0.0 °F30.01 in4.0 miNorth (10°)3.5 mphHaze
3:55 AM57.2 °F0.0 °F30.00 in4.0 miNNE (30°)3.5 mphHaze
4:15 AM59.0 °F0.0 °F30.01 in1.0 miNE (40°)5.8 mphOvercast
4:35 AM59.0 °F0.0 °F30.00 in0.8 miNE (50°)6.9 mphOvercast
4:55 AM59.0 °F0.0 °F30.01 in0.5 miNE (50°)3.5 mphFogFog
5:15 AM59.0 °F0.0 °F30.01 in0.8 miENE (70°)3.5 mphOvercast
5:35 AM60.8 °F0.0 °F30.01 in0.8 miNE (50°)5.8 mphOvercast
5:55 AM60.8 °F0.0 °F30.01 in0.8 miENE (70°)4.6 mphOvercast
6:15 AM60.8 °F0.0 °F30.01 in0.8 miENE (60°)6.9 mphOvercast
6:35 AM60.8 °F0.0 °F30.01 in0.5 miENE (60°)5.8 mphFogFog
6:55 AM60.8 °F0.0 °F30.02 in0.5 miENE (70°)3.5 mphFogFog
7:15 AM60.8 °F0.0 °F30.02 in0.2 miENE (70°)3.5 mphFogFog
7:35 AM62.6 °F0.0 °F30.02 in0.2 miEast (90°)3.5 mphFogFog
7:55 AM62.6 °F0.0 °F30.02 in0.2 miCalmFogFog
8:15 AM62.6 °F0.0 °F30.03 in0.2 miEast (80°)3.5 mphFogFog
8:35 AM62.6 °F0.0 °F30.03 in0.2 miEast (90°)3.5 mphFogFog
8:55 AM62.6 °F0.0 °F30.03 in0.2 miEast (100°)3.5 mphFogFog
9:15 AM64.4 °F0.0 °F30.02 in0.8 miESE (110°)6.9 mphOvercast
9:35 AM64.4 °F0.0 °F30.02 in2.0 miSE (140°)6.9 mphOvercast
9:55 AM64.4 °F0.0 °F30.01 in4.0 miSE (130°)8.1 mphHaze
10:15 AM68.0 °F0.0 °F30.00 in7.0 miSE (140°)6.9 mphScattered Clouds
10:35 AM69.8 °F60.8 °F73 %30.00 in5.0 miSSE (150°)9.2 mphHaze
10:55 AM71.6 °F59.0 °F64 %29.99 in7.0 miSSE (160°)10.4 mphClear
11:15 AM73.4 °F57.2 °F57 %29.98 in7.0 miSSE (150°)10.4 mphClear
11:35 AM75.2 °F57.2 °F53 %29.97 in10.0 miSouth (180°)10.4 mphClear
11:55 AM77.0 °F57.2 °F50 %29.96 in7.0 miSouth (170°)11.5 mphScattered Clouds
12:15 PM77.0 °F57.2 °F50 %29.95 in7.0 miSouth (170°)9.2 mphMostly Cloudy
12:35 PM77.0 °F57.2 °F50 %29.94 in10.0 miSouth (190°)12.7 mphMostly Cloudy
12:55 PM78.8 °F57.2 °F47 %29.92 in7.0 miSouth (190°)15.0 mph18.4 mphMostly Cloudy
1:15 PM78.8 °F55.4 °F44 %29.90 in7.0 miSouth (190°)17.3 mph24.2 mphScattered Clouds
1:35 PM80.6 °F57.2 °F45 %29.87 in7.0 miSouth (180°)10.4 mph23.0 mphClear
1:55 PM80.6 °F55.4 °F42 %29.87 in10.0 miSouth (180°)18.4 mph24.2 mphClear
2:15 PM80.6 °F55.4 °F42 %29.86 in10.0 miSSW (200°)11.5 mph23.0 mphClear
2:35 PM80.6 °F57.2 °F45 %29.86 in10.0 miSouth (190°)12.7 mph17.3 mphScattered Clouds
2:55 PM80.6 °F57.2 °F45 %29.84 in10.0 miSSW (200°)12.7 mph20.7 mphClear
3:15 PM80.6 °F59.0 °F48 %29.83 in10.0 miSSW (210°)8.1 mphScattered Clouds
3:35 PM80.6 °F59.0 °F48 %29.82 in10.0 miSSW (210°)11.5 mph19.6 mphScattered Clouds
3:55 PM80.6 °F59.0 °F48 %29.82 in10.0 miSSW (210°)16.1 mph25.3 mphMostly Cloudy
4:15 PM78.8 °F60.8 °F54 %29.81 in10.0 miSSW (200°)16.1 mph20.7 mphMostly Cloudy
4:35 PM77.0 °F62.6 °F61 %29.81 in7.0 miSSW (200°)11.5 mph27.6 mphRainLight Rain
4:55 PM73.4 °F64.4 °F73 %29.86 in7.0 miWest (280°)19.6 mph36.8 mph0.02 inRainRain
5:15 PM64.4 °F62.6 °F94 %29.88 in0.8 miWNW (290°)15.0 mph21.9 mph0.02 inOvercast
5:35 PM64.4 °F0.0 °F29.85 in4.0 miNW (310°)8.1 mph21.9 mph0.06 inRainRain
5:55 PM64.4 °F0.0 °F29.88 in10.0 miWSW (240°)3.5 mph0.10 inRainRain
6:15 PM64.4 °F0.0 °F29.87 in7.0 miWNW (300°)5.8 mph0.03 inRainRain
6:35 PM62.6 °F0.0 °F29.88 in10.0 miWest (280°)4.6 mph0.05 inRainLight Rain
6:55 PM62.6 °F0.0 °F29.88 in10.0 miWNW (290°)4.6 mph0.07 inRainRain
7:15 PM62.6 °F0.0 °F29.89 in7.0 miNorth0.02 inRainRain
7:35 PM62.6 °F0.0 °F29.88 in7.0 miWest (260°)3.5 mph0.09 inRainRain
7:55 PM62.6 °F0.0 °F29.86 in5.0 miCalm0.15 inRainRain
8:15 PM62.6 °F0.0 °F29.84 in7.0 miSSE (150°)3.5 mph0.03 inRainLight Rain
8:35 PM62.6 °F0.0 °F29.82 in10.0 miSE (140°)4.6 mph0.06 inRainLight Rain
8:55 PM64.4 °F0.0 °F29.79 in10.0 miSSE (150°)8.1 mph0.08 inMostly Cloudy
9:15 PM64.4 °F0.0 °F29.78 in10.0 miSouth (170°)9.2 mph0.02 inScattered Clouds
9:35 PM62.6 °F0.0 °F29.78 in10.0 miSouth (180°)6.9 mph0.03 inClear
9:55 PM62.6 °F0.0 °F29.78 in10.0 miSouth (180°)6.9 mph0.05 inClear
10:15 PM64.4 °F0.0 °F29.77 in10.0 miSouth (170°)6.9 mph0.01 inClear
10:35 PM64.4 °F0.0 °F29.76 in10.0 miSouth (180°)4.6 mph0.02 inClear
10:55 PM64.4 °F0.0 °F29.76 in10.0 miSouth (190°)9.2 mph0.03 inClear
11:15 PM64.4 °F0.0 °F29.75 in10.0 miSouth (190°)9.2 mph0.01 inClear
11:35 PM64.4 °F0.0 °F29.75 in10.0 miSSW (200°)8.1 mph0.02 inClear
11:55 PM64.4 °F0.0 °F29.75 in10.0 miSSW (200°)8.1 mph0.03 inClear
Hourly data recorded from KPCM, located miles away from Playa del Carmen, Quintana Roo







STORIES FROM OUR PARTNERS